Location: Newark
(33.6333°S, 78.8500°W)
Time: 00:56:17
(UTC+00:00)

Tiros 1 - Pass Details

Date: 23 October 2019
Orbit: 630 x 664 km, 48.4° (Epoch: 17 November)

Event Time Altitude Azimuth Distance (km) Brightness Sun altitude
Rises 23:27:57 0° 229° (SW) 2,940 11.8 0.6°
Reaches altitude 10° 23:30:19 10° 225° (SW) 2,027 10.8 0.1°
Maximum altitude 23:34:56 59° 145° (SE) 734 7.4 -0.8°
Drops below altitude 10° 23:39:31 10° 64° (ENE) 2,015 9.1 -1.7°
Enters shadow 23:41:27 - 61° (ENE) 2,760 9.7 -2.1°
Sets 23:41:52 0° 60° (ENE) 2,921 - -2.2°
